Regional Weather Roundup
Issued by NWS

Home | Current Version | Previous Version | Text Only | Print | Product List | Glossary Off
Versions: 1 2 3 4 5 6 7 8 9 10 11 12 13 14 15 16 17 18 19 20 21 22 23 24 25 26 27 28 29 30 31 32 33 34 35 36 37 38 39 40 41 42 43 44 45 46 47 48 49 50

000
ASUS43 KMKX 232100
RWRWI

WISCONSIN REGIONAL WEATHER ROUNDUP
NATIONAL WEATHER SERVICE MILWAUKEE/SULLIVAN WI
300 PM CST SUN NOV 23 2014

NOTE: "FAIR" INDICATES FEW OR NO CLOUDS BELOW 12,000 FEET WITH NO
SIGNIFICANT WEATHER AND/OR OBSTRUCTIONS TO VISIBILITY.

WIZ001-002-006>008-014>016-023>028-232200-
NORTHWEST WISCONSIN

CITY           SKY/WX    TMP DP  RH WIND       PRES   REMARKS
SUPERIOR ARPT  LGT RAIN  40  40  99 CALM      29.39F
ASHLAND        CLOUDY    46  45  96 SW3       29.39F FOG
HAYWARD        FOG       44  43  96 CALM      29.37F VSB<1/4
SIREN          CLOUDY    41  40  98 CALM      29.38F FOG
CUMBERLAND     FOG       41  41 100 CALM      29.37F VSB<1/4
RICE LAKE      FOG       43  42  97 CALM      29.38F VSB<1/4
CHETEK         FOG       42  42 100 E5        29.37F VSB<1/4
LADYSMITH      FOG       46  45  97 SE3       29.39F VSB<1/4
EAU CLAIRE     CLOUDY    48  48 100 S7        29.36F FOG
MENOMONIE      FOG       48  47  97 CALM      29.37F VSB 1/4
NEW RICHMOND   DRZL/FOG  42  42 100 N5        29.37F VSB<1/4
OSCEOLA        CLOUDY    41  41 100 NW6       29.41F FOG
$$

WIZ003>005-009-010-017-018-232200-
NORTH CENTRAL WISCONSIN

CITY           SKY/WX    TMP DP  RH WIND       PRES   REMARKS
MANITOWISH WTR FOG       42  42 100 S7        29.40F VSB<1/4
ARBOR VITAE    DRZL/FOG  44  43  97 S6        29.41F VSB<1/4
WOODRUFF       DRZL/FOG  44  43  97 S6        29.41F VSB<1/4
RHINELANDER    FOG       44  44 100 S5        29.42F VSB 1/4
EAGLE RIVER    FOG       43  43 100 S5        29.42F VSB<1/4
LAND O LAKES   FOG       44  44 100 S6        29.43F VSB 1/4
PHILLIPS       FOG       42  42 100 SE3       29.39F VSB<1/4
TOMAHAWK       LGT RAIN  42  42  97 CALM      29.43F VSB<1/4
MEDFORD        FOG       40  40 100 SE5       29.40F VSB<1/4
MERRILL        RAIN      45  45 100 SE3       29.41F VSB 1/4
$$

WIZ029-030-035-036-043>047-232200-
CENTRAL WISCONSIN

CITY           SKY/WX    TMP DP  RH WIND       PRES   REMARKS
WAUSAU         LGT RAIN  46  46 100 CALM      29.40F VSB 1/4
MOSINEE        FOG       46  46 100 CALM      29.42F VSB 1/8
MARSHFIELD     LGT RAIN  48  47  96 S5        29.40F VSB 1/4
STEVENS POINT  DRIZZLE   46  46 100 S5        29.43F
WAUPACA        LGT RAIN  50  49  95 SE8       29.45F
WAUTOMA        LGT RAIN  48  48 100 SE8       29.45F FOG
WISC RAPIDS    LGT RAIN  49  47  93 S6        29.43F FOG
CAMP DOUGLAS   NOT AVBL
$$

WIZ011>013-019>022-031-037>040-048>050-232200-
NORTHEAST WISCONSIN

CITY           SKY/WX    TMP DP  RH WIND       PRES   REMARKS
ANTIGO         FOG       41  41 100 CALM      29.44F VSB<1/4
SHAWANO        CLOUDY    49  48  95 S5        29.46F FOG
OCONTO         CLOUDY    44  44 100 S8        29.48S VSB 1
STURGEON BAY   CLOUDY    45  43  93 S13       29.49F
GREEN BAY      LGT RAIN  47  46  97 S5        29.47F VSB 3/4
MANITOWOC      LGT RAIN  45  45 100 S8        29.50F FOG
APPLETON       LGT RAIN  46  46 100 S9        29.47F FOG
CLINTONVILLE   DRIZZLE   46  46 100 S7        29.46S
OSHKOSH        LGT RAIN  48  46  93 S3        29.47F FOG
$$

WIZ032>034-041-042-053>061-232200-
SOUTHWEST WISCONSIN

CITY           SKY/WX    TMP DP  RH WIND       PRES   REMARKS
LA CROSSE      FOG       50  48  93 S3        29.37F VSB 1/2
SPARTA         CLOUDY    49  49  97 CALM      29.41F
VIROQUA        CLOUDY    48  48 100 SE8       29.39F
BOSCOBEL       LGT RAIN  51  48  89 CALM      29.38F FOG
PRAIRIE DU CHI LGT RAIN  50  48  94 E6        29.37F
PLATTEVILLE    CLOUDY    47  47  97 E9        29.41F
$$

WIZ056-057-062-063-064-067-068-232200-
SOUTH CENTRAL WISCONSIN

CITY           SKY/WX    TMP DP  RH WIND       PRES   REMARKS
REEDSBURG      LGT RAIN  48  47  98 CALM      29.42F
BARABOO/DELLS  RAIN      47  45  93 CALM      29.43F
LONE ROCK      RAIN      51  46  83 NE12      29.40F
MINERAL POINT  RAIN      48  46  93 E9        29.39F
MADISON        RAIN      48  46  93 S10       29.44F FOG
MIDDLETON      CLOUDY    49  48  98 SE7       29.44F
WATERTOWN      LGT RAIN  47  47 100 SE5       29.46F
MONROE         LGT RAIN  46  46 100 SE12      29.43F VSB 1
JANESVILLE     LGT RAIN  50  48  93 SE10      29.45F FOG
$$

WIZ051-052-058>065-066-070>072-232200-
SOUTHEAST WISCONSIN

CITY           SKY/WX    TMP DP  RH WIND       PRES   REMARKS
MILWAUKEE      LGT RAIN  47  45  93 SE10      29.50F FOG
WAUKESHA       DRIZZLE   46  46 100 SE7       29.49F FOG
MILWAUKEE/TIMM DRIZZLE   48  46  93 SE6       29.50F
RACINE         LGT RAIN  47  44  90 S12       29.52F FOG
BURLINGTON     DRIZZLE   48  47  98 S6        29.49F
KENOSHA        LGT RAIN  48  47  96 SE8       29.50F FOG
FOND DU LAC    RAIN      49  46  90 S9        29.45F FOG
SHEBOYGAN      LGT RAIN  45  43  93 S9        29.49F FOG
WEST BEND      LGT RAIN  46  45  93 SE5       29.48F
JUNEAU         RAIN      47  46  98 SE10      29.47F
$$

LSZ147-162-232200-
LAKE SUPERIOR

STATION/POSITION TIME  TEMP    WIND        PRES    WAVE
                       AIR SEA DIR/SP/G            HT/PER
                 (UTC) (F)     (DEG/KT/KT) (MB)    (FT/S)
DEVILS ISLAND    2000   42     220/  3/  4  995.9F
PORT WING        2000   41     190/  2/  3  995.9F
SAXON HARBOR     2000   50      CALM  /  9  995.6F
$$

LMZ867-665-643>646-232200-
LAKE MICHIGAN

STATION/POSITION TIME  TEMP    WIND        PRES    WAVE
                       AIR SEA DIR/SP/G            HT/PER
                 (UTC) (F)     (DEG/KT/KT) (MB)    (FT/S)
CHAMBERS ISLAND  2000   46     150/  3/  8  999.3F
N MID LAKE BUOY  1950   45 42  200/ 19/ 23 1000.6F   6/ 6
NORTHPORT PIER   2000   43     140/  7/ 17  999.7F
SISTER BAY       1943          150/ 14/ 17   N/A
ALGOMA LAKESHORE 2013          220/ 13/ 15   N/A
KEWAUNEE LAKESHO 2006   40     180/ 14/ 16  999.0F
SHEBOYGAN LAKESH 2000   43 40  180/ 14/ 15  999.9F
PORT WASHINGTON  2000   43     190/  3/  5 1000.7F
ATWATER BUOY     2000   50      CALM  /  2 1001.8F
MILWAUKEE LAKESH 2000   42     150/ 11/ 13   N/A
S MID LAKE BUOY  1950   46 43  150/ 14/ 16 1001.4F   2/ 4
KENOSHA   LAKESH 2000   43     170/ 11/ 12 1000.3F
$$

TC  - TEMPERATURE IN CELSIUS
VSB - VISIBILITY IN STATUTE MILES
WCI - WIND CHILL INDEX
HX  - HEAT INDEX




USA.gov is the U.S. government's official web portal to all federal, state and local government web resources and services.